Weather History for Jerez de la Frontera, Spain

Change the Weather History Date:

Wednesday, October 16, 2013

  Actual Average Record
Temperature  
Mean Temperature 72 °F -  
Max Temperature 88 °F 70 °F 88 °F (2013)
Min Temperature 56 °F 51 °F 46 °F (2004)
Cooling Degree Days 7    
Growing Degree Days 22 (Base 50)    
Moisture  
Dew Point 54 °F    
Average Humidity 52    
Maximum Humidity 94    
Minimum Humidity 20    
Precipitation  
Precipitation 0.00 in 0.11 in - ()
Sea Level Pressure  
Sea Level Pressure 30.10 in    
Wind  
Wind Speed 8 mph ()    
Max Wind Speed 16 mph    
Max Gust Speed 25 mph    
Visibility 17.5 miles    
Events      
Averages and records for this station are not official NWS values.
T = Trace of Precipitation, MM = Missing Value Source: Averaged Metar Reports

Daily Weather History Graph

Daily Weather History Graph

Search for Another Location

Airport:

Trip Planner

Search our weather history database for the weather conditions in past years. The results will help you decide how hot, cold, wet, or windy it might be!

Date:

Astronomy

Oct. 16, 2013 Rise Set
Actual Time 8:32 AM CEST 7:46 PM CEST
Civil Twilight 8:06 AM CEST 8:12 PM CEST
Nautical Twilight 7:36 AM CEST 8:42 PM CEST
Astronomical Twilight 7:06 AM CEST 9:12 PM CEST
Moon 6:15 PM CEST (10/16) 5:49 AM CEST (10/16)
Length of Visible Light 12h 05m
Length of Day
11h 13m
Waxing Gibbous, 92% of the Moon is Illuminated
Oct 16
Waxing Gibbous
Oct 19
Full
Oct 27
Last Quarter
Nov 3
New
Nov 10
First Quarter

Hourly Weather History & Observations

Time (CEST) Temp. Heat Index Dew Point Humidity Pressure Visibility Wind Dir Wind Speed Gust Speed Precip Events Conditions
2:00 AM 61 °F - 58 °F 88% 30.15 in 19 mi North 1.2 mph - -   Clear
5:00 AM 57.2 °F - 55.4 °F 94% 30.12 in - NNW 3.5 mph - N/A   Clear
5:30 AM 60.8 °F - 57.2 °F 88% 30.12 in - North 5.8 mph - N/A   Clear
6:00 AM 60.8 °F - 55.4 °F 82% 30.12 in - North 3.5 mph - N/A   Clear
6:30 AM 60.8 °F - 55.4 °F 82% 30.12 in - North 10.4 mph - N/A   Clear
7:00 AM 60.8 °F - 53.6 °F 77% 30.12 in - Variable 1.2 mph - N/A   Clear
7:30 AM 60.8 °F - 53.6 °F 77% 30.12 in - North 6.9 mph - N/A   Clear
8:00 AM 61 °F - 52 °F 65% 30.15 in 28 mi NNW 12.7 mph - -   Clear
8:00 AM 62.6 °F - 53.6 °F 72% 30.12 in - North 11.5 mph - N/A   Clear
8:30 AM 60.8 °F - 51.8 °F 72% 30.12 in - North 10.4 mph - N/A   Clear
9:00 AM 60.8 °F - 51.8 °F 72% 30.15 in - North 6.9 mph - N/A   Clear
9:30 AM 64.4 °F - 53.6 °F 68% 30.12 in - North 8.1 mph - N/A   Clear
10:00 AM 69.8 °F - 53.6 °F 56% 30.12 in - NNE 11.5 mph - N/A   Clear
10:30 AM 73.4 °F - 53.6 °F 50% 30.15 in - North 11.5 mph - N/A   Clear
11:00 AM 75.2 °F - 55.4 °F 50% 30.15 in - NNE 13.8 mph - N/A   Clear
11:30 AM 77.0 °F - 53.6 °F 44% 30.15 in - NNE 13.8 mph 25.3 mph N/A   Clear
12:00 PM 78.8 °F - 53.6 °F 42% 30.15 in - NE 16.1 mph - N/A   Clear
12:30 PM 80.6 °F - 51.8 °F 37% 30.15 in - NNE 16.1 mph - N/A   Clear
1:00 PM 82.4 °F 81.4 °F 53.6 °F 37% 30.15 in - NNE 13.8 mph - N/A   Clear
1:30 PM 84.2 °F - 51.8 °F 33% 30.12 in - NNE 13.8 mph - N/A   Clear
2:00 PM 86 °F - 51 °F 20% 30.13 in 28 mi NNE 13.8 mph - -   Clear
2:00 PM 84.2 °F - 51.8 °F 33% 30.12 in - NNE 12.7 mph - N/A   Clear
2:30 PM 84.2 °F - 50.0 °F 30% 30.09 in - NNE 13.8 mph - N/A   Clear
3:00 PM 86.0 °F - 50.0 °F 29% 30.09 in - North 15.0 mph - N/A   Clear
3:30 PM 87.8 °F - 51.8 °F 29% 30.09 in - North 12.7 mph - N/A   Clear
4:00 PM 86.0 °F - 51.8 °F 31% 30.09 in - NNE 12.7 mph - N/A   Clear
4:30 PM 87.8 °F - 50.0 °F 27% 30.06 in - North 12.7 mph - N/A   Clear
5:00 PM 87.8 °F - 50.0 °F 27% 30.06 in - North 12.7 mph - N/A   Clear
5:30 PM 87.8 °F - 50.0 °F 27% 30.06 in - North 12.7 mph - N/A   Clear
6:00 PM 86.0 °F - 50.0 °F 29% 30.06 in - North 11.5 mph - N/A   Clear
6:30 PM 86.0 °F - 51.8 °F 31% 30.06 in - North 11.5 mph - N/A   Clear
7:00 PM 84.2 °F - 51.8 °F 33% 30.04 in - NNW 10.4 mph - N/A   Clear
7:30 PM 82.4 °F 81.4 °F 53.6 °F 37% 30.04 in - NNW 8.1 mph - N/A   Clear
8:00 PM 78 °F - 52 °F 29% 30.06 in 16 mi NW 6.9 mph - -   Clear
8:00 PM 78.8 °F - 51.8 °F 39% 30.06 in - NNW 5.8 mph - N/A   Clear
8:30 PM 75.2 °F - 57.2 °F 53% 30.06 in - WNW 6.9 mph - N/A   Clear
9:00 PM 73.4 °F - 57.2 °F 57% 30.06 in - WNW 10.4 mph - N/A   Clear
9:30 PM 71.6 °F - 57.2 °F 60% 30.06 in - NNW 8.1 mph - N/A   Clear
10:00 PM 69.8 °F - 59.0 °F 68% 30.06 in - North 4.6 mph - N/A   Clear
10:30 PM 68.0 °F - 60.8 °F 78% 30.06 in - Variable 1.2 mph - N/A   Clear
11:00 PM 66.2 °F - 59.0 °F 78% 30.06 in - Variable 2.3 mph - N/A   Clear